This is the latest recevied weather packets stored in our database for station/object KE5QKR. If no packets are shown the sender has not sent any weather packets the latest 10 day(s).
| Time | Temp. | Humidity | Pressure | Rain* | Wind** | Luminosity | Snow |
|---|---|---|---|---|---|---|---|
| 1777765415 | 20.56° C | 45% | 1014.4 hPa | 0 mm | - | 26 W/m² | - |
| 1777765112 | 20.56° C | 45% | 1014.3 hPa | 0 mm | - | 28 W/m² | - |
| 1777764808 | 20.56° C | 44% | 1014.2 hPa | 0 mm | - | 31 W/m² | - |
| 1777764505 | 20.56° C | 44% | 1014.2 hPa | 0 mm | - | 30 W/m² | - |
| 1777764201 | 20.56° C | 44% | 1014.1 hPa | 0 mm | - | 32 W/m² | - |
| 1777763898 | 21.11° C | 47% | 1014.2 hPa | 0 mm | - | 32 W/m² | - |
| 1777763596 | 21.11° C | 44% | 1014.2 hPa | 0 mm | - | 34 W/m² | - |
| 1777763294 | 21.11° C | 42% | 1014.1 hPa | 0 mm | - | 35 W/m² | - |
| 1777762992 | 21.11° C | 45% | 1013.9 hPa | 0 mm | - | 41 W/m² | - |
| 1777762688 | 21.11° C | 43% | 1013.8 hPa | 0 mm | - | 40 W/m² | - |
| 1777762385 | 21.11° C | 41% | 1014 hPa | 0 mm | - | 38 W/m² | - |
| 1777762082 | 21.11° C | 41% | 1014 hPa | 0 mm | - | 67 W/m² | - |
| 1777761778 | 21.11° C | 40% | 1014 hPa | 0 mm | - | 174 W/m² | - |
| 1777761476 | 21.67° C | 41% | 1013.8 hPa | 0 mm | - | 189 W/m² | - |
| 1777761174 | 21.67° C | 41% | 1013.8 hPa | 0 mm | - | 100 W/m² | - |
| 1777760871 | 21.67° C | 44% | 1013.7 hPa | 0 mm | - | 219 W/m² | - |
| 1777760568 | 21.67° C | 41% | 1013.8 hPa | 0 mm | - | 54 W/m² | - |
| 1777760264 | 21.67° C | 41% | 1013.7 hPa | 0 mm | - | 156 W/m² | - |
| 1777759960 | 21.67° C | 40% | 1013.8 hPa | 0 mm | - | 235 W/m² | - |
| 1777759657 | 21.67° C | 41% | 1013.6 hPa | 0 mm | - | 133 W/m² | - |
| 1777759353 | 21.67° C | 41% | 1013.7 hPa | 0 mm | - | 99 W/m² | - |
| 1777759050 | 21.67° C | 42% | 1013.9 hPa | 0 mm | - | 65 W/m² | - |
| 1777758747 | 21.67° C | 42% | 1013.5 hPa | 0 mm | - | 88 W/m² | - |
| 1777758444 | 21.67° C | 40% | 1013.6 hPa | 0 mm | - | 120 W/m² | - |
| 1777758141 | 21.67° C | 40% | 1013.4 hPa | 1.27 mm | - | 167 W/m² | - |
* Rain latest hour (hover to see other rain measurements)
** Current wind speed in m/s (hover to see current wind gust speed)